Location: Unspecified
(49.2170°N, 0.0000°E)
Time: 13:23:50
(UTC+00:00)

Vanguard 1 Rocket - All Passes

Search period start: 23 January 2021 00:00
Search period end: 02 February 2021 00:00
Orbit: 655 x 4221 km, 34.3° (Epoch: 23 January)

Date Brightness Start Highest point End Pass type
(mag) Time Alt. Az. Time Alt. Az. Time Alt. Az.
23 Jan - 13:39:45 10° SSW 13:41:56 13° S 13:44:10 10° SSE daylight
23 Jan - 16:05:21 10° SSW 16:05:55 10° SSW 16:06:30 10° S daylight
24 Jan - 12:29:25 10° SSW 12:31:27 12° S 12:33:23 10° SSE daylight
24 Jan - 14:53:40 10° SSW 14:55:17 12° S 14:57:01 10° SSE daylight
25 Jan - 11:19:10 10° S 11:20:53 11° S 11:22:27 10° SSE daylight
25 Jan - 13:42:43 10° SSW 13:44:46 13° S 13:46:51 10° SSE daylight
26 Jan - 12:31:47 10° SSW 12:34:18 14° S 12:36:37 10° SSE daylight
27 Jan - 11:20:45 10° SSW 11:23:46 14° S 11:26:20 10° SE daylight
27 Jan - 13:45:58 10° SSW 13:47:36 12° S 13:49:14 10° SSE daylight
28 Jan - 10:09:42 10° SSW 10:13:04 14° S 10:15:51 10° SE daylight
28 Jan - 12:34:24 10° SW 12:37:08 14° S 12:39:37 10° SSE daylight
29 Jan - 08:58:58 10° S 09:02:11 12° SSE 09:04:51 10° SE daylight
29 Jan - 11:22:51 10° SW 11:26:38 17° S 11:29:42 10° SE daylight
30 Jan - 07:50:16 10° SSE 07:51:01 10° SSE 07:51:44 10° SSE daylight
30 Jan - 10:11:10 10° SW 10:15:58 17° S 10:19:36 10° SE daylight
30 Jan - 12:37:13 10° SW 12:39:58 14° SSW 12:42:26 10° SSE daylight
31 Jan - 08:59:29 10° SSW 09:05:05 17° S 09:09:13 10° SE daylight
31 Jan - 11:25:12 10° SW 11:29:29 18° S 11:32:52 10° SE daylight
01 Feb - 07:48:10 10° SSW 07:53:54 15° SSE 07:58:16 10° SE daylight
01 Feb - 10:13:03 10° SW 10:18:52 21° S 10:23:00 10° SE daylight
01 Feb - 12:40:13 10° SW 12:42:44 13° SSW 12:44:59 10° S daylight
